When you browse on this site, cookies collect data to enhance your experience and personalize the content and advertising you see.
Visit our Privacy Policy to learn more. By continuing to use the site, you agree to this use of cookies and data.
  • en France
  • Liste des pays
  • À 7 jours
  • Température de l'eau
  • Carte satellitaire
  • Carte météo
  • Widgets météo
  • user-avatar
    Se connecter

    Météo par heure à Ichgl

    Ce jour, 12 Décembre, Mercredi

    Heure Température Précipitation Vent Pression Humidité
    00:00 -20°C° 0 mm 2 m/s 567 mmHg 86%
    01:00 -20°C° 0 mm 2 m/s 567 mmHg 84%
    02:00 -20°C° 0 mm 2 m/s 567 mmHg 83%
    03:00 -20°C° 0 mm 2 m/s 566 mmHg 82%
    04:00 -20°C° 0 mm 2 m/s 566 mmHg 81%
    05:00 -20°C° 0 mm 2 m/s 566 mmHg 81%
    06:00 -20°C° 0 mm 2 m/s 566 mmHg 81%
    07:00 -21°C° 0 mm 2 m/s 566 mmHg 81%
    08:00 -19°C° 0 mm 2 m/s 567 mmHg 80%
    09:00 -15°C° 0 mm 1 m/s 568 mmHg 78%
    10:00 -14°C° 0 mm 1 m/s 569 mmHg 77%
    11:00 -12°C° 0 mm 1 m/s 569 mmHg 74%
    12:00 -11°C° 0 mm 1 m/s 570 mmHg 70%
    13:00 -9°C° 0 mm 1 m/s 570 mmHg 66%
    14:00 -11°C° 0 mm 1 m/s 569 mmHg 71%
    15:00 -12°C° 0 mm 1 m/s 568 mmHg 75%
    16:00 -14°C° 0 mm 1 m/s 567 mmHg 79%
    17:00 -15°C° 0 mm 1 m/s 566 mmHg 78%
    18:00 -16°C° 0 mm 1 m/s 566 mmHg 78%
    19:00 -17°C° 0 mm 1 m/s 565 mmHg 77%
    20:00 -18°C° 0 mm 1 m/s 565 mmHg 75%
    21:00 -20°C° 0 mm 2 m/s 565 mmHg 73%
    22:00 -20°C° 0 mm 2 m/s 565 mmHg 71%
    23:00 -20°C° 0 mm 2 m/s 565 mmHg 70%

    Demain, 13 Décembre, Jeudi

    Heure Température Précipitation Vent Pression Humidité
    00:00 -20°C° 0 mm 2 m/s 565 mmHg 69%
    01:00 -20°C° 0 mm 2 m/s 564 mmHg 68%
    02:00 -21°C° 0 mm 2 m/s 564 mmHg 68%
    03:00 -21°C° 0 mm 2 m/s 564 mmHg 68%
    04:00 -21°C° 0 mm 2 m/s 563 mmHg 67%
    05:00 -21°C° 0 mm 2 m/s 563 mmHg 67%
    06:00 -21°C° 0 mm 2 m/s 563 mmHg 66%
    07:00 -21°C° 0 mm 2 m/s 563 mmHg 66%
    08:00 -20°C° 0 mm 2 m/s 563 mmHg 68%
    09:00 -18°C° 0 mm 2 m/s 564 mmHg 69%
    10:00 -17°C° 0 mm 2 m/s 565 mmHg 71%
    11:00 -15°C° 0 mm 2 m/s 565 mmHg 71%
    12:00 -14°C° 0 mm 2 m/s 566 mmHg 72%
    13:00 -12°C° 0 mm 2 m/s 566 mmHg 72%
    14:00 -13°C° 0 mm 2 m/s 565 mmHg 75%
    15:00 -14°C° 0 mm 2 m/s 564 mmHg 78%
    16:00 -16°C° 0 mm 2 m/s 564 mmHg 82%
    17:00 -17°C° 0 mm 2 m/s 563 mmHg 81%
    18:00 -18°C° 0 mm 2 m/s 563 mmHg 81%
    19:00 -19°C° 0 mm 2 m/s 563 mmHg 81%
    20:00 -19°C° 0 mm 2 m/s 563 mmHg 80%
    21:00 -19°C° 0 mm 2 m/s 563 mmHg 80%
    22:00 -19°C° 0 mm 2 m/s 563 mmHg 79%
    23:00 -19°C° 0 mm 2 m/s 563 mmHg 78%

    Après-demain, 14 Décembre, Vendredi

    Heure Température Précipitation Vent Pression Humidité
    00:00 -19°C° 0 mm 2 m/s 563 mmHg 77%
    01:00 -19°C° 0 mm 2 m/s 563 mmHg 76%
    02:00 -18°C° 0 mm 2 m/s 563 mmHg 75%
    03:00 -18°C° 0 mm 2 m/s 563 mmHg 74%
    04:00 -18°C° 0 mm 2 m/s 563 mmHg 73%
    05:00 -18°C° 0 mm 2 m/s 564 mmHg 74%
    06:00 -18°C° 0 mm 2 m/s 564 mmHg 74%
    07:00 -18°C° 0 mm 2 m/s 564 mmHg 74%
    08:00 -16°C° 0 mm 2 m/s 565 mmHg 75%
    09:00 -13°C° 0 mm 1 m/s 566 mmHg 76%
    10:00 -11°C° 0 mm 1 m/s 567 mmHg 77%
    11:00 -10°C° 0 mm 1 m/s 567 mmHg 75%
    12:00 -8°C° 0 mm 1 m/s 568 mmHg 73%
    13:00 -7°C° 0 mm 0 m/s 568 mmHg 70%
    14:00 -9°C° 0 mm 0 m/s 567 mmHg 76%
    15:00 -10°C° 0 mm 0 m/s 567 mmHg 81%
    16:00 -12°C° 0 mm 0 m/s 566 mmHg 87%
    17:00 -13°C° 0 mm 1 m/s 566 mmHg 87%
    18:00 -14°C° 0 mm 1 m/s 566 mmHg 87%
    19:00 -15°C° 0 mm 1 m/s 565 mmHg 88%
    20:00 -15°C° 0 mm 1 m/s 566 mmHg 85%
    21:00 -16°C° 0 mm 1 m/s 566 mmHg 83%
    22:00 -16°C° 0 mm 1 m/s 566 mmHg 81%
    23:00 -16°C° 0 mm 1 m/s 566 mmHg 78%

    15 Décembre, Samedi

    Heure Température Précipitation Vent Pression Humidité
    00:00 -16°C° 0 mm 1 m/s 566 mmHg 76%
    01:00 -17°C° 0 mm 1 m/s 566 mmHg 73%
    02:00 -17°C° 0 mm 1 m/s 566 mmHg 73%
    03:00 -17°C° 0 mm 1 m/s 566 mmHg 73%
    04:00 -19°C° 0 mm 2 m/s 566 mmHg 72%
    05:00 -20°C° 0 mm 2 m/s 566 mmHg 74%
    06:00 -20°C° 0 mm 2 m/s 566 mmHg 76%
    07:00 -20°C° 0 mm 2 m/s 566 mmHg 78%
    08:00 -18°C° 0 mm 2 m/s 567 mmHg 77%
    09:00 -15°C° 0 mm 1 m/s 568 mmHg 77%
    10:00 -13°C° 0 mm 1 m/s 569 mmHg 77%
    11:00 -12°C° 0 mm 1 m/s 570 mmHg 74%
    12:00 -10°C° 0 mm 1 m/s 570 mmHg 70%
    13:00 -9°C° 0 mm 1 m/s 571 mmHg 67%
    14:00 -10°C° 0 mm 1 m/s 570 mmHg 70%
    15:00 -12°C° 0 mm 1 m/s 569 mmHg 73%
    16:00 -13°C° 0 mm 1 m/s 568 mmHg 76%
    17:00 -14°C° 0 mm 1 m/s 568 mmHg 71%
    18:00 -15°C° 0 mm 1 m/s 568 mmHg 65%
    19:00 -18°C° 0 mm 2 m/s 568 mmHg 59%
    20:00 -18°C° 0 mm 2 m/s 568 mmHg 55%
    21:00 -17°C° 0 mm 2 m/s 568 mmHg 50%
    22:00 -17°C° 0 mm 2 m/s 569 mmHg 46%
    23:00 -17°C° 0 mm 2 m/s 569 mmHg 42%

    16 Décembre, Dimanche

    Heure Température Précipitation Vent Pression Humidité
    00:00 -16°C° 0 mm 2 m/s 569 mmHg 39%
    01:00 -16°C° 0 mm 2 m/s 569 mmHg 36%
    02:00 -16°C° 0 mm 2 m/s 569 mmHg 34%
    03:00 -15°C° 0 mm 2 m/s 569 mmHg 32%
    04:00 -15°C° 0 mm 2 m/s 569 mmHg 31%
    05:00 -14°C° 0 mm 2 m/s 569 mmHg 31%
    06:00 -13°C° 0 mm 2 m/s 570 mmHg 31%
    07:00 -12°C° 0 mm 2 m/s 570 mmHg 32%
    08:00 -9°C° 0 mm 2 m/s 571 mmHg 39%
    09:00 -6°C° 0 mm 1 m/s 572 mmHg 46%
    10:00 -3°C° 0 mm 1 m/s 573 mmHg 54%
    11:00 -2°C° 0 mm 1 m/s 573 mmHg 61%
    12:00 -1°C° 0 mm 1 m/s 573 mmHg 68%
    13:00 0°C° 0 mm 1 m/s 573 mmHg 76%
    14:00 -1°C° 0 mm 1 m/s 573 mmHg 74%
    15:00 -1°C° 0 mm 1 m/s 573 mmHg 72%
    16:00 -2°C° 0 mm 1 m/s 572 mmHg 70%
    17:00 -3°C° 0 mm 1 m/s 572 mmHg 70%
    18:00 -5°C° 0 mm 2 m/s 572 mmHg 70%
    19:00 -6°C° 0 mm 2 m/s 572 mmHg 70%
    20:00 -6°C° 0.3 mm 2 m/s 572 mmHg 71%
    21:00 -6°C° 0.3 mm 2 m/s 572 mmHg 72%
    22:00 -6°C° 0.3 mm 2 m/s 572 mmHg 73%
    23:00 -7°C° 0.3 mm 2 m/s 572 mmHg 75%

    17 Décembre, Lundi

    Heure Température Précipitation Vent Pression Humidité
    00:00 -7°C° 0.3 mm 2 m/s 572 mmHg 76%
    01:00 -6°C° 0.3 mm 1 m/s 572 mmHg 78%
    02:00 -6°C° 0.4 mm 1 m/s 572 mmHg 81%
    03:00 -6°C° 0.4 mm 1 m/s 572 mmHg 85%
    04:00 -7°C° 0.4 mm 1 m/s 572 mmHg 88%
    05:00 -7°C° 0.1 mm 1 m/s 571 mmHg 88%
    06:00 -7°C° 0.1 mm 1 m/s 571 mmHg 88%
    07:00 -7°C° 0.1 mm 1 m/s 571 mmHg 87%
    08:00 -6°C° 0.3 mm 1 m/s 572 mmHg 88%
    09:00 -6°C° 0.3 mm 1 m/s 572 mmHg 89%
    10:00 -4°C° 0.3 mm 1 m/s 573 mmHg 90%
    11:00 -3°C° 0.8 mm 1 m/s 573 mmHg 91%
    12:00 -3°C° 0.8 mm 1 m/s 573 mmHg 91%
    13:00 -3°C° 0.8 mm 1 m/s 573 mmHg 92%
    14:00 -3°C° 0.8 mm 1 m/s 573 mmHg 93%
    15:00 -3°C° 0.8 mm 1 m/s 573 mmHg 94%
    16:00 -4°C° 0.8 mm 1 m/s 572 mmHg 95%
    17:00 -4°C° 1 mm 1 m/s 573 mmHg 95%
    18:00 -6°C° 1 mm 2 m/s 573 mmHg 96%
    19:00 -6°C° 1 mm 2 m/s 573 mmHg 96%
    20:00 -7°C° 0.9 mm 2 m/s 573 mmHg 96%
    21:00 -7°C° 0.9 mm 2 m/s 573 mmHg 97%
    22:00 -7°C° 0.9 mm 2 m/s 574 mmHg 97%
    23:00 -7°C° 0.3 mm 2 m/s 573 mmHg 97%
    Voir plus